Location: Hurstbourne Priors
(51.2000°N, 1.3667°W)
Time: 18:53:15
(UTC+00:00)

Transit 4A - Pass Details

Date: 22 April 2021
Orbit: 870 x 974 km, 66.8° (Epoch: 09 May)

Event Time Altitude Azimuth Distance (km) Brightness Sun altitude
Rises 04:49:47 0° 314° (NW) 3,558 10.7 -1.7°
Reaches altitude 10° 04:52:57 10° 329° (NNW) 2,596 10.2 -1.2°
Maximum altitude 04:57:32 22° 19° (NNE) 1,853 10.1 -0.5°
Drops below altitude 10° 05:02:03 10° 70° (ENE) 2,546 12.6 0.1°
Sets 05:05:07 0° 85° (E) 3,472 12.9 0.6°
